#timestamp,LO_Frequency,Hit,StdDev 
1567126815.9,286047000.4,N
1567126835.7,286047002.0,N
1567126855.6,286047001.9,N
1567126875.4,286047001.4,N
1567126895.2,286047002.6,N
1567126915.1,286046999.7,N
1567126916.0,286046999.7,N
1567126935.8,286047002.4,N
1567126955.6,286046999.7,N
1567126975.5,286047002.5,N
1567126995.3,286047001.6,N
1567127015.2,286047002.2,N
1567127035.9,286047001.8,N
1567127055.7,286047002.0,N
1567127075.6,286047002.5,N
1567127095.4,286047001.8,N
1567127115.2,286047004.0,N
1567127135.1,286047001.4,N
1567127136.0,286047001.4,N
1567127155.8,286047001.8,N
1567127175.6,286047002.4,N
1567127195.5,286047000.7,N
1567127215.3,286047000.8,N
1567127235.1,286047000.9,N
1567127255.9,286046998.7,N
1567127275.7,286046998.8,N
1567127295.6,286046998.3,N
1567127315.4,286046998.2,N
1567127335.2,286046999.1,N
1567127355.1,286047001.2,N
1567127356.0,286047001.2,N
1567127375.8,286047000.7,N
1567127395.6,286046998.1,N
1567127415.5,286047000.7,N
1567127435.3,286047000.6,N
1567127455.1,286046999.7,N
1567127475.9,286047004.4,N
1567127495.7,286047002.5,N
1567127515.6,286047002.4,N
1567127535.4,286047002.4,N
1567127555.2,286046999.7,N
1567127575.1,286047002.6,N
1567127576.0,286047002.6,N
1567127595.8,286046999.8,N
1567127615.6,286047002.0,N
1567127635.5,286047004.4,N
1567127655.3,286047002.0,N
1567127675.1,286047001.5,N
1567127695.9,286047001.4,N
1567127715.7,286047001.6,N
1567127735.6,286047001.4,N
1567127755.4,286047001.3,N
1567127775.2,286047001.5,N
1567127795.1,286047001.8,N
1567127796.0,286047001.8,N
1567127815.8,286047002.1,N
1567127835.6,286047001.9,N
1567127855.5,286047003.5,N
1567127875.3,286047005.6,Y
1567127895.1,286047001.9,P
1567127915.9,286047002.1,P
1567127935.7,286047002.7,P
1567127955.5,286047001.3,N
1567127975.4,286047006.0,Y
1567127995.2,286047004.2,P
1567128015.0,286047003.9,P
1567128015.9,286047003.9,P
1567128035.8,286047001.9,N
1567128055.6,286046999.7,N
1567128075.4,286047002.4,N
1567128095.3,286047002.2,N
1567128115.1,286047004.4,Y
1567128116.0,286047004.4,P
1567128135.8,286047000.0,N
1567128155.7,286047001.9,N
1567128175.5,286047002.4,N
1567128195.3,286047001.4,N
1567128215.2,286047004.1,Y
1567128235.9,286047002.6,P
1567128255.7,286047002.3,P
1567128275.6,286046999.7,N
1567128295.4,286047002.3,N
1567128315.2,286047000.1,N
1567128335.1,286047002.7,N
1567128336.0,286047002.7,N
1567128355.8,286047001.0,N
1567128375.6,286047001.2,N
1567128395.5,286046998.1,N
1567128415.3,286047001.2,N
1567128435.1,286046998.1,N
1567128455.9,286046998.1,N
1567128475.7,286047000.3,N
1567128495.5,286047002.0,N
1567128515.4,286047002.3,N
1567128535.2,286047004.0,N
1567128555.0,286047002.4,N
1567128555.9,286047002.4,N
1567128575.8,286046998.5,N
1567128595.6,286046999.1,N
1567128615.4,286047000.7,N
1567128635.3,286046998.5,N
1567128655.1,286046998.9,N
1567128656.0,286046998.9,N
1567128675.8,286046998.7,N
1567128695.7,286047002.8,N
1567128715.5,286047000.1,N
1567128735.3,286047002.6,N
1567128755.2,286047002.1,N
1567128775.9,286047002.7,N
1567128795.7,286047002.7,N
1567128815.6,286046998.1,N
1567128835.4,286046998.6,N
1567128855.2,286046998.5,N
1567128875.1,286047001.1,N
1567128876.0,286047001.1,N
1567128895.8,286046999.3,N
1567128915.6,286046999.0,N
1567128935.5,286046998.1,N
1567128955.3,286046998.6,N
1567128975.1,286047000.8,N
1567128995.9,286047000.6,N
1567129015.7,286046998.5,N
1567129035.5,286046999.3,N
1567129055.4,286046998.3,N
1567129075.2,286046996.5,N
1567129095.0,286046999.4,N
1567129095.9,286046999.4,N
1567129115.8,286046999.2,N
1567129135.6,286046996.5,N
1567129155.4,286046999.4,N
1567129175.3,286046998.9,N
1567129195.1,286046996.7,N
1567129196.0,286046996.7,N
1567129215.8,286046999.4,N
1567129235.7,286046999.5,N
1567129255.5,286046999.4,N
1567129275.3,286046997.1,N
1567129295.2,286046997.6,N
1567129315.9,286046999.0,N
1567129335.7,286046996.8,N
1567129355.6,286046999.4,N
1567129375.4,286046999.0,N
1567129395.2,286046998.8,N
1567129415.1,286046998.9,N
1567129416.0,286046998.9,N
1567129435.8,286046998.9,N
1567129455.6,286046998.2,N
1567129475.5,286047000.7,N
1567129495.3,286047000.8,N
1567129515.1,286046998.3,N
1567129535.9,286046999.6,N
1567129555.7,286046999.2,N
1567129575.5,286046998.7,N
1567129595.4,286046998.6,N
1567129615.2,286046998.4,N
1567129635.0,286047001.0,N
1567129635.9,286047001.0,N
1567129655.8,286047002.5,N
1567129675.6,286047001.6,N
1567129695.4,286047004.0,N
1567129715.3,286047002.5,N
1567129735.1,286046998.1,N
1567129736.0,286046998.1,N
1567129755.8,286047001.2,N
1567129775.7,286047000.5,N
1567129795.5,286047001.2,N
1567129815.3,286046999.3,N
1567129835.2,286046996.5,N
1567129855.9,286046996.6,N
1567129875.7,286046996.6,N
1567129895.6,286046998.5,N
1567129915.4,286046996.9,N
1567129935.2,286046998.4,N
1567129955.1,286046998.1,N
1567129956.0,286046998.1,N
1567129975.8,286046998.7,N
1567129995.6,286046998.3,N
1567130015.5,286046998.6,N
1567130035.3,286046998.3,N
1567130055.1,286046998.5,N
1567130075.9,286047000.7,N
1567130095.7,286046998.2,N
1567130115.5,286046998.8,N
1567130135.4,286047001.1,N
1567130155.2,286046998.4,N
1567130175.0,286046998.5,N
1567130175.9,286046998.5,N
1567130195.8,286046998.6,N
1567130215.6,286046998.2,N
1567130235.4,286047001.0,N
1567130255.3,286046998.5,N
1567130275.1,286046998.6,N
1567130276.0,286046998.6,N
1567130295.8,286046998.1,N
1567130315.7,286047001.1,N
1567130335.5,286046998.8,N
1567130355.3,286046998.7,N
1567130375.2,286046999.0,N
1567130395.9,286046998.3,N
